Location: Bushey
(51.6333°N, 0.3667°W)
Time: 13:04:52
(UTC+00:00)

CZ-4B R/B - Pass Details

Date: 03 March 2021
Orbit: 388 x 455 km, 97.6° (Epoch: 13 April)

Event Time Altitude Azimuth Distance (km) Brightness Sun altitude
Rises 18:39:05 0° 10° (N) 2,295 4.9 -9.1°
Reaches altitude 10° 18:41:04 10° 7° (N) 1,436 3.9 -9.4°
Maximum altitude 18:44:04 57° 287° (WNW) 470 1.9 -9.9°
Drops below altitude 10° 18:47:04 10° 208° (SSW) 1,437 4.3 -10.3°
Sets 18:49:04 0° 204° (SSW) 2,298 5.3 -10.7°
